Simultaneous Nadir Overpasses (SNOs) Predictions

Prediction of SNOs between NOAA-19 and TERRA Satellite Orbit:

Table of predicted SNOs for the next 14.0 days since TLE Epoch: 8/26/2022
Index Date (NOAA-19) Time (NOAA-19) Lat,Lon (NOAA-19) SZA (NOAA-19 ) Date (TERRA) Time (TERRA) Lat,Lon (TERRA) SZA (TERRA ) Distance(km) Time Diff (sec)
1 08/27/2022 13:14:32 80.85, 17.08 72.60 08/27/2022 13:15:23 80.84, 17.09 72.62 0.55 51
2 08/27/2022 14:05:36 -80.84,-175.27 107.35 08/27/2022 14:04:50 -80.84,-175.31 107.38 0.62 46
3 08/29/2022 19:38:24 80.85, -78.78 73.43 08/29/2022 19:38:30 80.84, -78.80 73.42 1.32 6
4 09/01/2022 01:11:21 -80.85, 18.09 105.75 09/01/2022 01:12:10 -80.86, 18.00 105.73 1.85 49
5 09/01/2022 02:02:15 80.84,-174.30 74.29 09/01/2022 02:01:36 80.85,-174.38 74.28 1.96 39
6 09/03/2022 07:35:13 -80.85, -77.91 104.91 09/03/2022 07:35:17 -80.84, -77.94 104.92 0.83 4
7 09/05/2022 13:08:01 80.85, 18.68 75.91 09/05/2022 13:08:56 80.85, 18.74 75.94 1.12 55
8 09/05/2022 13:59:04 -80.85,-173.58 104.04 09/05/2022 13:58:23 -80.86,-173.58 104.05 1.28 41



Historial Predications of SNOs between NOAA-19 and TERRA
